29.03.2024;11:35;53,200;
29.03.2024;11:20;53,400;
29.03.2024;11:05;53,500;
29.03.2024;10:50;53,200;
29.03.2024;10:35;53,200;
29.03.2024;10:20;53,500;
29.03.2024;10:05;53,400;
29.03.2024;09:50;53,300;
29.03.2024;09:35;53,400;
29.03.2024;09:20;53,400;
29.03.2024;09:05;53,300;
29.03.2024;08:50;53,300;
29.03.2024;08:35;53,300;
29.03.2024;08:20;53,400;
29.03.2024;08:05;53,200;
29.03.2024;07:50;53,200;
29.03.2024;07:35;53,400;
29.03.2024;07:20;53,400;
29.03.2024;07:05;53,300;
29.03.2024;06:50;53,300;
29.03.2024;06:35;53,300;
29.03.2024;06:20;53,300;
29.03.2024;06:05;53,300;
29.03.2024;05:50;53,300;
29.03.2024;05:35;53,300;
29.03.2024;05:20;53,100;
29.03.2024;05:05;53,200;
29.03.2024;04:50;53,300;
29.03.2024;04:35;53,200;
29.03.2024;04:20;53,100;
29.03.2024;04:05;53,200;
29.03.2024;03:50;53,300;
29.03.2024;03:35;53,300;
29.03.2024;03:20;53,100;
29.03.2024;03:05;53,100;
29.03.2024;02:50;53,300;
29.03.2024;02:35;53,200;
29.03.2024;02:20;53,200;
29.03.2024;02:05;53,200;
29.03.2024;01:50;53,200;
29.03.2024;01:35;53,100;
29.03.2024;01:20;53,200;
29.03.2024;01:05;53,300;
29.03.2024;00:50;53,200;
29.03.2024;00:35;53,200;
29.03.2024;00:20;53,300;
29.03.2024;00:05;53,300;
28.03.2024;23:50;53,200;
28.03.2024;23:35;53,300;
28.03.2024;23:20;53,300;
28.03.2024;23:05;53,100;
28.03.2024;22:50;53,100;
28.03.2024;22:35;53,300;
28.03.2024;22:20;53,300;
28.03.2024;22:05;53,100;
28.03.2024;21:50;53,200;
28.03.2024;21:35;53,300;
28.03.2024;21:20;53,200;
28.03.2024;21:05;53,100;
28.03.2024;20:50;53,200;
28.03.2024;20:35;53,300;
28.03.2024;20:20;53,200;
28.03.2024;20:05;53,200;
28.03.2024;19:50;53,200;
28.03.2024;19:35;53,200;
28.03.2024;19:20;53,200;
28.03.2024;19:05;53,200;
28.03.2024;18:50;53,300;
28.03.2024;18:35;53,200;
28.03.2024;18:20;53,100;
28.03.2024;18:05;53,200;
28.03.2024;17:50;53,100;
28.03.2024;17:35;53,200;
28.03.2024;17:20;53,200;
28.03.2024;17:05;53,300;
28.03.2024;16:50;53,200;
28.03.2024;16:35;53,100;
28.03.2024;16:20;53,200;
28.03.2024;16:05;53,200;
28.03.2024;15:50;53,100;
28.03.2024;15:35;53,100;
28.03.2024;15:20;53,200;
28.03.2024;15:05;53,200;
28.03.2024;14:50;53,000;
28.03.2024;14:35;53,200;
28.03.2024;14:20;53,200;
28.03.2024;14:05;53,100;
28.03.2024;13:50;53,100;
28.03.2024;13:35;53,200;
28.03.2024;13:20;53,100;
28.03.2024;13:05;53,100;
28.03.2024;12:50;53,200;
28.03.2024;12:35;53,200;
28.03.2024;12:20;53,100;
28.03.2024;12:05;53,100;
28.03.2024;11:50;53,200;
28.03.2024;11:35;53,100;
28.03.2024;11:20;53,100;
28.03.2024;11:05;53,200;
28.03.2024;10:50;53,100;
28.03.2024;10:35;53,000;
28.03.2024;10:20;53,100;
28.03.2024;10:05;53,200;
28.03.2024;09:50;53,200;
28.03.2024;09:35;53,100;
28.03.2024;09:20;53,100;
28.03.2024;09:05;53,200;
28.03.2024;08:50;53,200;
28.03.2024;08:35;53,100;
28.03.2024;08:20;53,100;
28.03.2024;08:05;53,300;
28.03.2024;07:50;53,200;
28.03.2024;07:35;53,100;
28.03.2024;07:20;53,100;
28.03.2024;07:05;53,200;
28.03.2024;06:50;53,300;
28.03.2024;06:35;53,200;
28.03.2024;06:20;53,000;
28.03.2024;06:05;53,000;
28.03.2024;05:50;53,200;
28.03.2024;05:35;53,300;
28.03.2024;05:20;53,100;
28.03.2024;05:05;53,000;
28.03.2024;04:50;53,000;
28.03.2024;04:35;53,200;
28.03.2024;04:20;53,300;
28.03.2024;04:05;53,100;
28.03.2024;03:50;52,900;
28.03.2024;03:35;53,100;
28.03.2024;03:20;53,300;
28.03.2024;03:05;53,200;
28.03.2024;02:50;53,000;
28.03.2024;02:35;53,000;
28.03.2024;02:20;53,200;
28.03.2024;02:05;53,200;
28.03.2024;01:50;53,100;
28.03.2024;01:35;53,000;
28.03.2024;01:20;53,100;
28.03.2024;01:05;53,200;
28.03.2024;00:50;53,200;
28.03.2024;00:35;53,100;
28.03.2024;00:20;53,100;
28.03.2024;00:05;53,200;
27.03.2024;23:50;53,200;
27.03.2024;23:35;53,100;
27.03.2024;23:20;53,000;
27.03.2024;23:05;53,100;
27.03.2024;22:50;53,200;
27.03.2024;22:35;53,100;
27.03.2024;22:20;53,100;
27.03.2024;22:05;53,000;
27.03.2024;21:50;53,100;
27.03.2024;21:35;53,200;
27.03.2024;21:20;53,100;
27.03.2024;21:05;53,100;
27.03.2024;20:50;53,100;
27.03.2024;20:35;53,200;
27.03.2024;20:20;53,200;
27.03.2024;20:05;53,000;
27.03.2024;19:50;53,000;
27.03.2024;19:35;53,100;
27.03.2024;19:20;53,200;
27.03.2024;19:05;53,100;
27.03.2024;18:50;53,000;
27.03.2024;18:35;53,100;
27.03.2024;18:20;53,200;
27.03.2024;18:05;53,200;
27.03.2024;17:50;53,100;
27.03.2024;17:35;53,000;
27.03.2024;17:20;53,100;
27.03.2024;17:05;53,100;
27.03.2024;16:50;53,100;
27.03.2024;16:35;53,000;
27.03.2024;16:20;53,000;
27.03.2024;16:05;53,100;
27.03.2024;15:50;53,100;
27.03.2024;15:35;53,000;
27.03.2024;15:20;53,000;
27.03.2024;15:05;53,000;
27.03.2024;14:50;53,000;
27.03.2024;14:35;53,000;
27.03.2024;14:20;53,000;
27.03.2024;14:05;53,000;
27.03.2024;13:50;52,900;
27.03.2024;13:35;53,000;
27.03.2024;13:20;53,000;
27.03.2024;13:05;52,900;
27.03.2024;12:50;52,800;
27.03.2024;12:35;53,000;
27.03.2024;12:20;53,100;
27.03.2024;12:05;52,900;
27.03.2024;11:50;52,800;
27.03.2024;11:35;52,900;
27.03.2024;11:20;53,000;
27.03.2024;11:05;53,000;
27.03.2024;10:50;53,000;
27.03.2024;10:35;52,900;
27.03.2024;10:20;52,900;
27.03.2024;10:05;53,000;
27.03.2024;09:50;53,000;
27.03.2024;09:35;53,000;
27.03.2024;09:20;52,900;
27.03.2024;09:05;53,000;
27.03.2024;08:50;53,000;
27.03.2024;08:35;53,000;
27.03.2024;08:20;52,800;
27.03.2024;08:05;52,900;
27.03.2024;07:50;53,000;
27.03.2024;07:35;53,100;
27.03.2024;07:20;52,900;
27.03.2024;07:05;52,800;
27.03.2024;06:50;52,900;
27.03.2024;06:35;53,100;
27.03.2024;06:20;53,100;
27.03.2024;06:05;52,900;
27.03.2024;05:50;52,900;
27.03.2024;05:35;53,000;
27.03.2024;05:20;53,100;
27.03.2024;05:05;53,100;
27.03.2024;04:50;52,800;
27.03.2024;04:35;52,900;
27.03.2024;04:20;53,100;
27.03.2024;04:05;53,100;
27.03.2024;03:50;52,900;
27.03.2024;03:35;52,900;
27.03.2024;03:20;53,100;
27.03.2024;03:05;53,100;
27.03.2024;02:50;53,000;
27.03.2024;02:35;52,900;
27.03.2024;02:20;53,000;
27.03.2024;02:05;53,100;
27.03.2024;01:50;53,100;
27.03.2024;01:35;53,000;
27.03.2024;01:20;53,000;
27.03.2024;01:05;53,000;
27.03.2024;00:50;53,100;
27.03.2024;00:35;53,100;
27.03.2024;00:20;53,000;
27.03.2024;00:05;53,000;
26.03.2024;23:50;53,000;
26.03.2024;23:35;53,100;
26.03.2024;23:20;53,000;
26.03.2024;23:05;53,000;
26.03.2024;22:50;53,100;
26.03.2024;22:35;53,100;
26.03.2024;22:20;53,100;
26.03.2024;22:05;52,900;
26.03.2024;21:50;53,000;
26.03.2024;21:35;53,100;
26.03.2024;21:20;53,100;
26.03.2024;21:05;52,900;
26.03.2024;20:50;52,900;
26.03.2024;20:35;53,200;
26.03.2024;20:20;53,100;
26.03.2024;20:05;53,000;
26.03.2024;19:50;53,000;
26.03.2024;19:35;53,100;
26.03.2024;19:20;53,100;
26.03.2024;19:05;53,100;
26.03.2024;18:50;53,000;
26.03.2024;18:35;53,000;
26.03.2024;18:20;53,100;
26.03.2024;18:05;53,100;
26.03.2024;17:50;53,000;
26.03.2024;17:35;53,000;
26.03.2024;17:20;53,000;
26.03.2024;17:05;53,100;
26.03.2024;16:50;53,100;
26.03.2024;16:35;53,100;
26.03.2024;16:20;53,100;
26.03.2024;16:05;53,000;
26.03.2024;15:50;53,100;
26.03.2024;15:35;53,100;
26.03.2024;15:20;53,000;
26.03.2024;15:05;52,900;
26.03.2024;14:50;53,000;
26.03.2024;14:35;53,100;
26.03.2024;14:20;53,000;
26.03.2024;14:05;53,000;
26.03.2024;13:50;53,100;
26.03.2024;13:35;53,000;
26.03.2024;13:20;53,000;
26.03.2024;13:05;53,000;
26.03.2024;12:50;53,000;
26.03.2024;12:35;53,000;
26.03.2024;12:20;53,000;
26.03.2024;12:05;53,100;
26.03.2024;11:50;53,000;
26.03.2024;11:35;53,000;
26.03.2024;11:20;53,000;
26.03.2024;11:05;53,100;
26.03.2024;10:50;53,100;
26.03.2024;10:35;53,000;
26.03.2024;10:20;53,000;
26.03.2024;10:05;53,100;
26.03.2024;09:50;53,000;
26.03.2024;09:35;53,000;
26.03.2024;09:20;53,000;
26.03.2024;09:05;53,100;
26.03.2024;08:50;53,100;
26.03.2024;08:35;53,000;
26.03.2024;08:20;53,100;
26.03.2024;08:05;53,100;
26.03.2024;07:50;53,100;
26.03.2024;07:35;53,100;
26.03.2024;07:20;53,100;
26.03.2024;07:05;53,000;
26.03.2024;06:50;53,000;
26.03.2024;06:35;53,100;
26.03.2024;06:20;53,000;
26.03.2024;06:05;53,000;
26.03.2024;05:50;53,000;
26.03.2024;05:35;53,100;
26.03.2024;05:20;53,100;
26.03.2024;05:05;53,000;
26.03.2024;04:50;53,000;
26.03.2024;04:35;53,100;
26.03.2024;04:20;53,100;
26.03.2024;04:05;53,100;
26.03.2024;03:50;53,000;
26.03.2024;03:35;53,000;
26.03.2024;03:20;53,000;
26.03.2024;03:05;53,000;
26.03.2024;02:50;53,000;
26.03.2024;02:35;53,000;
26.03.2024;02:20;53,100;
26.03.2024;02:05;53,000;
26.03.2024;01:50;53,000;
26.03.2024;01:35;53,000;
26.03.2024;01:20;53,000;
26.03.2024;01:05;53,000;
26.03.2024;00:50;53,000;
26.03.2024;00:35;53,000;
26.03.2024;00:20;53,000;
26.03.2024;00:05;53,100;
25.03.2024;23:50;53,100;
25.03.2024;23:35;53,000;
25.03.2024;23:20;53,000;
25.03.2024;23:05;53,100;
25.03.2024;22:50;53,100;
25.03.2024;22:35;53,100;
25.03.2024;22:20;53,000;
25.03.2024;22:05;53,100;
25.03.2024;21:50;53,100;
25.03.2024;21:35;53,100;
25.03.2024;21:20;53,100;
25.03.2024;21:05;53,100;
25.03.2024;20:50;53,000;
25.03.2024;20:35;53,100;
25.03.2024;20:20;53,100;
25.03.2024;20:05;53,100;
25.03.2024;19:50;53,000;
25.03.2024;19:35;53,100;
25.03.2024;19:20;53,100;
25.03.2024;19:05;53,100;
25.03.2024;18:50;53,000;
25.03.2024;18:35;53,000;
25.03.2024;18:20;53,100;
25.03.2024;18:05;53,100;
25.03.2024;17:50;53,100;
25.03.2024;17:35;53,100;
25.03.2024;17:20;53,100;
25.03.2024;17:05;53,000;
25.03.2024;16:50;53,100;
25.03.2024;16:35;53,100;
25.03.2024;16:20;53,000;
25.03.2024;16:05;53,000;
25.03.2024;15:50;53,100;
25.03.2024;15:35;53,000;
25.03.2024;15:20;53,000;
25.03.2024;15:05;53,000;
25.03.2024;14:50;53,100;
25.03.2024;14:35;53,000;
25.03.2024;14:20;53,000;
25.03.2024;14:05;53,100;
25.03.2024;13:50;53,100;
25.03.2024;13:35;53,000;
25.03.2024;13:20;53,000;
25.03.2024;13:05;53,100;
25.03.2024;12:50;53,100;
25.03.2024;12:35;53,100;
25.03.2024;12:20;53,000;
25.03.2024;12:05;53,000;
25.03.2024;11:50;53,100;
25.03.2024;11:35;53,100;
25.03.2024;11:20;53,100;
25.03.2024;11:05;53,000;
25.03.2024;10:50;53,000;
25.03.2024;10:35;53,100;
25.03.2024;10:20;53,100;
25.03.2024;10:05;53,100;
25.03.2024;09:50;53,000;
25.03.2024;09:35;53,100;
25.03.2024;09:20;53,000;
25.03.2024;09:05;53,000;
25.03.2024;08:50;53,000;
25.03.2024;08:35;53,100;
25.03.2024;08:20;53,100;
25.03.2024;08:05;53,000;
25.03.2024;07:50;53,000;
25.03.2024;07:35;53,100;
25.03.2024;07:20;53,000;
25.03.2024;07:05;53,000;
25.03.2024;06:50;53,000;
25.03.2024;06:35;53,000;
25.03.2024;06:20;53,000;
25.03.2024;06:05;53,000;
25.03.2024;05:50;53,100;
25.03.2024;05:35;53,000;
25.03.2024;05:20;53,000;
25.03.2024;05:05;53,000;
25.03.2024;04:50;53,100;
25.03.2024;04:35;53,000;
25.03.2024;04:20;53,000;
25.03.2024;04:05;53,000;
25.03.2024;03:50;53,000;
25.03.2024;03:35;53,100;
25.03.2024;03:20;53,000;
25.03.2024;03:05;52,900;
25.03.2024;02:50;52,900;
25.03.2024;02:35;53,000;
25.03.2024;02:20;53,000;
25.03.2024;02:05;52,900;
25.03.2024;01:50;52,900;
25.03.2024;01:35;53,000;
25.03.2024;01:20;53,000;
25.03.2024;01:05;52,900;
25.03.2024;00:50;53,000;
25.03.2024;00:35;53,000;
25.03.2024;00:20;53,000;
25.03.2024;00:05;53,000;
24.03.2024;23:50;53,000;
24.03.2024;23:35;53,000;
24.03.2024;23:20;53,000;
24.03.2024;23:05;53,000;
24.03.2024;22:50;52,900;
24.03.2024;22:35;53,000;
24.03.2024;22:20;53,000;
24.03.2024;22:05;53,000;
24.03.2024;21:50;53,000;
24.03.2024;21:35;52,900;
24.03.2024;21:20;52,900;
24.03.2024;21:05;53,000;
24.03.2024;20:50;53,000;
24.03.2024;20:35;52,800;
24.03.2024;20:20;52,800;
24.03.2024;20:05;52,900;
24.03.2024;19:50;52,900;
24.03.2024;19:35;52,800;
24.03.2024;19:20;52,800;
24.03.2024;19:05;53,000;
24.03.2024;18:50;52,900;
24.03.2024;18:35;52,800;
24.03.2024;18:20;52,800;
24.03.2024;18:05;52,900;
24.03.2024;17:50;52,800;
24.03.2024;17:35;52,900;
24.03.2024;17:20;52,900;
24.03.2024;17:05;52,800;
24.03.2024;16:50;52,800;
24.03.2024;16:35;52,900;
24.03.2024;16:20;52,900;
24.03.2024;16:05;52,800;
24.03.2024;15:50;52,800;
24.03.2024;15:35;52,900;
24.03.2024;15:20;52,900;
24.03.2024;15:05;52,800;
24.03.2024;14:50;52,800;
24.03.2024;14:35;52,800;
24.03.2024;14:20;52,800;
24.03.2024;14:05;52,800;
24.03.2024;13:50;52,800;
24.03.2024;13:35;52,700;
24.03.2024;13:20;52,700;
24.03.2024;13:05;52,900;
24.03.2024;12:50;52,800;
24.03.2024;12:35;52,700;
24.03.2024;12:20;52,700;
24.03.2024;12:05;52,800;
24.03.2024;11:50;52,900;
24.03.2024;11:35;52,800;
24.03.2024;11:20;52,700;
24.03.2024;11:05;52,700;
24.03.2024;10:50;52,800;
24.03.2024;10:35;52,800;
24.03.2024;10:20;52,700;
24.03.2024;10:05;52,600;
24.03.2024;09:50;52,700;
24.03.2024;09:35;52,800;
24.03.2024;09:20;52,900;
24.03.2024;09:05;52,700;
24.03.2024;08:50;52,600;
24.03.2024;08:35;52,800;
24.03.2024;08:20;52,800;
24.03.2024;08:05;52,700;
24.03.2024;07:50;52,600;
24.03.2024;07:35;52,700;
24.03.2024;07:20;52,700;
24.03.2024;07:05;52,700;
24.03.2024;06:50;52,700;
24.03.2024;06:35;52,600;
24.03.2024;06:20;52,700;
24.03.2024;06:05;52,800;
24.03.2024;05:50;52,700;
24.03.2024;05:35;52,500;
24.03.2024;05:20;52,500;
24.03.2024;05:05;52,700;
24.03.2024;04:50;52,700;
24.03.2024;04:35;52,500;
24.03.2024;04:20;52,500;
24.03.2024;04:05;52,600;
24.03.2024;03:50;52,700;
24.03.2024;03:35;52,500;
24.03.2024;03:20;52,400;
24.03.2024;03:05;52,500;
24.03.2024;02:50;52,600;
24.03.2024;02:35;52,500;
24.03.2024;02:20;52,400;
24.03.2024;02:05;52,500;
24.03.2024;01:50;52,600;
24.03.2024;01:35;52,600;
24.03.2024;01:20;52,500;
24.03.2024;01:05;52,400;
24.03.2024;00:50;52,500;
24.03.2024;00:35;52,600;
24.03.2024;00:20;52,600;
24.03.2024;00:05;52,500;
23.03.2024;23:50;52,500;
23.03.2024;23:35;52,500;
23.03.2024;23:20;52,600;
23.03.2024;23:05;52,500;
23.03.2024;22:50;52,500;
23.03.2024;22:35;52,600;
23.03.2024;22:20;52,600;
23.03.2024;22:05;52,500;
23.03.2024;21:50;52,600;
23.03.2024;21:35;52,600;
23.03.2024;21:20;52,500;
23.03.2024;21:05;52,500;
23.03.2024;20:50;52,500;
23.03.2024;20:35;52,600;
23.03.2024;20:20;52,500;
23.03.2024;20:05;52,500;
23.03.2024;19:50;52,600;
23.03.2024;19:35;52,600;
23.03.2024;19:20;52,500;
23.03.2024;19:05;52,500;
23.03.2024;18:50;52,600;
23.03.2024;18:35;52,600;
23.03.2024;18:20;52,500;
23.03.2024;18:05;52,500;
23.03.2024;17:50;52,600;
23.03.2024;17:35;52,600;
23.03.2024;17:20;52,600;
23.03.2024;17:05;52,500;
23.03.2024;16:50;52,500;
23.03.2024;16:35;52,600;
23.03.2024;16:20;52,600;
23.03.2024;16:05;52,500;
23.03.2024;15:50;52,500;
23.03.2024;15:35;52,600;
23.03.2024;15:20;52,600;
23.03.2024;15:05;52,400;
23.03.2024;14:50;52,400;
23.03.2024;14:35;52,500;
23.03.2024;14:20;52,600;
23.03.2024;14:05;52,500;
23.03.2024;13:50;52,400;
23.03.2024;13:35;52,500;
23.03.2024;13:20;52,600;
23.03.2024;13:05;52,600;
23.03.2024;12:50;52,500;
23.03.2024;12:35;52,400;
23.03.2024;12:20;52,500;
23.03.2024;12:05;52,600;
23.03.2024;11:50;52,500;
23.03.2024;11:35;52,400;
23.03.2024;11:20;52,500;
23.03.2024;11:05;52,600;
23.03.2024;10:50;52,500;
23.03.2024;10:35;52,400;
23.03.2024;10:20;52,400;
23.03.2024;10:05;52,500;
23.03.2024;09:50;52,500;
23.03.2024;09:35;52,400;
23.03.2024;09:20;52,400;
23.03.2024;09:05;52,400;
23.03.2024;08:50;52,500;
23.03.2024;08:35;52,400;
23.03.2024;08:20;52,400;
23.03.2024;08:05;52,400;
23.03.2024;07:50;52,500;
23.03.2024;07:35;52,400;
23.03.2024;07:20;52,400;
23.03.2024;07:05;52,400;
23.03.2024;06:50;52,500;
23.03.2024;06:35;52,500;
23.03.2024;06:20;52,400;
23.03.2024;06:05;52,300;
23.03.2024;05:50;52,400;
23.03.2024;05:35;52,400;
23.03.2024;05:20;52,500;
23.03.2024;05:05;52,400;
23.03.2024;04:50;52,300;
23.03.2024;04:35;52,400;
23.03.2024;04:20;52,600;
23.03.2024;04:05;52,400;
23.03.2024;03:50;52,300;
23.03.2024;03:35;52,400;
23.03.2024;03:20;52,400;
23.03.2024;03:05;52,400;
23.03.2024;02:50;52,400;
23.03.2024;02:35;52,400;
23.03.2024;02:20;52,300;
23.03.2024;02:05;52,300;
23.03.2024;01:50;52,400;
23.03.2024;01:35;52,300;
23.03.2024;01:20;52,200;
23.03.2024;01:05;52,300;
23.03.2024;00:50;52,400;
23.03.2024;00:35;52,300;
23.03.2024;00:20;52,000;
23.03.2024;00:05;52,100;
22.03.2024;23:50;52,400;
22.03.2024;23:35;52,300;
22.03.2024;23:20;52,100;
22.03.2024;23:05;52,100;
22.03.2024;22:50;52,300;
22.03.2024;22:35;52,300;
22.03.2024;22:20;52,100;
22.03.2024;22:05;52,100;
22.03.2024;21:50;52,100;
22.03.2024;21:35;52,200;
22.03.2024;21:20;52,200;
22.03.2024;21:05;52,000;
22.03.2024;20:50;52,000;
22.03.2024;20:35;52,000;
22.03.2024;20:20;52,000;
22.03.2024;20:05;52,000;
22.03.2024;19:50;52,000;
22.03.2024;19:35;52,000;
22.03.2024;19:20;52,000;
22.03.2024;19:05;52,000;
22.03.2024;18:50;52,000;
22.03.2024;18:35;52,000;
22.03.2024;18:20;52,000;
22.03.2024;18:05;52,000;
22.03.2024;17:50;52,000;
22.03.2024;17:35;52,000;
22.03.2024;17:20;52,000;
22.03.2024;17:05;52,000;
22.03.2024;16:50;52,000;
22.03.2024;16:35;52,000;
22.03.2024;16:20;52,000;
22.03.2024;16:05;52,000;
22.03.2024;15:50;52,000;
22.03.2024;15:35;52,000;
22.03.2024;15:20;52,000;
22.03.2024;15:05;52,000;
22.03.2024;14:50;52,000;
22.03.2024;14:35;52,000;
22.03.2024;14:20;52,000;
22.03.2024;14:05;52,000;
22.03.2024;13:50;52,000;
22.03.2024;13:35;52,000;
22.03.2024;13:20;52,000;
22.03.2024;13:05;52,000;
22.03.2024;12:50;52,000;
22.03.2024;12:35;52,000;
22.03.2024;12:20;52,000;
22.03.2024;12:05;52,000;
22.03.2024;11:50;52,000;
22.03.2024;11:35;52,000;
22.03.2024;11:20;52,000;
22.03.2024;11:05;52,000;
22.03.2024;10:50;52,000;
22.03.2024;10:35;52,000;
22.03.2024;10:20;52,000;
22.03.2024;10:05;52,000;
22.03.2024;09:50;52,000;
22.03.2024;09:35;52,000;
22.03.2024;09:20;52,000;
22.03.2024;09:05;52,000;
22.03.2024;08:50;52,000;
22.03.2024;08:35;52,000;
22.03.2024;08:20;52,000;
22.03.2024;08:05;52,000;
22.03.2024;07:50;52,000;
22.03.2024;07:35;52,000;
22.03.2024;07:20;52,000;
22.03.2024;07:05;52,000;
22.03.2024;06:50;52,000;
22.03.2024;06:35;52,000;
22.03.2024;06:20;52,000;
22.03.2024;06:05;52,000;
22.03.2024;05:50;52,000;
22.03.2024;05:35;52,000;
22.03.2024;05:20;52,000;
22.03.2024;05:05;52,000;
22.03.2024;04:50;52,000;
22.03.2024;04:35;52,000;
22.03.2024;04:20;52,000;
22.03.2024;04:05;52,000;
22.03.2024;03:50;52,000;
22.03.2024;03:35;52,000;
22.03.2024;03:20;52,000;
22.03.2024;03:05;52,000;
22.03.2024;02:50;52,000;
22.03.2024;02:35;52,000;
22.03.2024;02:20;52,000;
22.03.2024;02:05;52,000;
22.03.2024;01:50;52,000;
22.03.2024;01:35;52,000;
22.03.2024;01:20;52,000;
22.03.2024;01:05;52,000;
22.03.2024;00:50;52,000;
22.03.2024;00:35;52,000;
22.03.2024;00:20;52,000;
22.03.2024;00:05;52,000;
21.03.2024;23:50;52,000;
21.03.2024;23:35;52,000;
21.03.2024;23:20;52,000;
21.03.2024;23:05;52,000;
21.03.2024;22:50;52,000;
21.03.2024;22:35;52,000;
21.03.2024;22:20;52,000;
21.03.2024;22:05;52,000;
21.03.2024;21:50;52,000;
21.03.2024;21:35;52,000;
21.03.2024;21:20;52,000;
21.03.2024;21:05;52,000;
21.03.2024;20:50;52,000;
21.03.2024;20:35;52,000;
21.03.2024;20:20;52,000;
21.03.2024;20:05;52,000;
21.03.2024;19:50;52,000;
21.03.2024;19:35;52,000;
21.03.2024;19:20;52,000;
21.03.2024;19:05;52,000;
21.03.2024;18:50;52,000;
21.03.2024;18:35;52,000;
21.03.2024;18:20;52,000;
21.03.2024;18:05;52,000;
21.03.2024;17:50;52,000;
21.03.2024;17:35;52,000;
21.03.2024;17:20;52,000;
21.03.2024;17:05;52,000;
21.03.2024;16:50;52,000;
21.03.2024;16:35;52,000;
21.03.2024;16:20;52,000;
21.03.2024;16:05;52,000;
21.03.2024;15:50;52,000;
21.03.2024;15:35;52,000;
21.03.2024;15:20;52,000;
21.03.2024;15:05;52,000;
21.03.2024;14:50;52,000;
21.03.2024;14:35;52,000;
21.03.2024;14:20;52,000;
21.03.2024;14:05;52,000;
21.03.2024;13:50;52,000;
21.03.2024;13:35;52,000;
21.03.2024;13:20;52,000;
21.03.2024;13:05;52,000;
21.03.2024;12:50;52,000;
21.03.2024;12:35;52,000;
21.03.2024;12:20;52,000;
21.03.2024;12:05;52,000;
21.03.2024;11:50;52,000;
21.03.2024;11:35;52,000;
21.03.2024;11:20;52,000;
21.03.2024;11:05;52,000;
21.03.2024;10:50;52,000;
21.03.2024;10:35;52,000;
21.03.2024;10:20;52,000;
21.03.2024;10:05;52,000;
21.03.2024;09:50;52,000;
21.03.2024;09:35;52,000;
21.03.2024;09:20;52,000;
21.03.2024;09:05;52,000;
21.03.2024;08:50;52,000;
21.03.2024;08:35;52,000;
21.03.2024;08:20;52,000;
21.03.2024;08:05;52,000;
21.03.2024;07:50;52,000;
21.03.2024;07:35;52,000;
21.03.2024;07:20;52,000;
21.03.2024;07:05;52,000;
21.03.2024;06:50;52,000;
21.03.2024;06:35;52,000;
21.03.2024;06:20;52,000;
21.03.2024;06:05;52,000;
21.03.2024;05:50;52,000;
21.03.2024;05:35;52,000;
21.03.2024;05:20;52,000;
21.03.2024;05:05;52,000;
21.03.2024;04:50;52,000;
21.03.2024;04:35;52,000;
21.03.2024;04:20;52,000;
21.03.2024;04:05;52,000;
21.03.2024;03:50;52,000;
21.03.2024;03:35;52,000;
21.03.2024;03:20;52,000;
21.03.2024;03:05;52,000;
21.03.2024;02:49;52,000;
21.03.2024;02:34;52,000;
21.03.2024;02:19;52,000;
21.03.2024;02:04;52,000;
21.03.2024;01:49;52,000;
21.03.2024;01:34;52,000;
21.03.2024;01:19;52,000;
21.03.2024;01:04;52,000;
21.03.2024;00:49;52,000;
21.03.2024;00:34;52,000;
21.03.2024;00:19;52,000;
21.03.2024;00:04;52,000;
20.03.2024;23:49;52,000;
20.03.2024;23:34;52,000;
20.03.2024;23:19;52,000;
20.03.2024;23:04;52,000;
20.03.2024;22:49;52,000;
20.03.2024;22:34;52,000;
20.03.2024;22:19;52,000;
20.03.2024;22:04;52,000;
20.03.2024;21:49;52,000;
20.03.2024;21:34;52,000;
20.03.2024;21:19;52,000;
20.03.2024;21:04;52,000;
20.03.2024;20:50;52,000;
20.03.2024;20:34;52,000;
20.03.2024;20:19;52,000;
20.03.2024;20:04;52,000;
20.03.2024;19:49;52,000;
20.03.2024;19:34;52,000;
20.03.2024;19:19;52,000;
20.03.2024;19:04;52,000;
20.03.2024;18:49;52,000;
20.03.2024;18:34;52,000;
20.03.2024;18:19;52,000;
20.03.2024;18:04;52,000;
20.03.2024;17:49;52,000;
20.03.2024;17:34;52,000;
20.03.2024;17:19;52,000;
20.03.2024;17:04;52,000;
20.03.2024;16:49;52,000;
20.03.2024;16:34;52,000;
20.03.2024;16:19;52,000;
20.03.2024;16:04;52,000;
20.03.2024;15:49;52,000;
20.03.2024;15:34;52,000;
20.03.2024;15:19;52,000;
20.03.2024;15:04;52,000;
20.03.2024;14:49;52,000;
20.03.2024;14:34;52,000;
20.03.2024;14:19;52,000;
20.03.2024;14:04;52,000;
20.03.2024;13:49;52,000;
20.03.2024;13:34;52,000;
20.03.2024;13:19;52,000;
20.03.2024;13:04;52,000;
20.03.2024;12:49;52,000;
20.03.2024;12:34;52,000;
20.03.2024;12:19;52,000;
20.03.2024;12:04;52,000;
20.03.2024;11:49;52,000;
20.03.2024;11:34;52,000;
20.03.2024;11:19;52,000;
20.03.2024;11:04;52,000;
20.03.2024;10:49;52,000;
20.03.2024;10:34;52,000;
20.03.2024;10:19;52,000;
20.03.2024;10:04;52,000;
20.03.2024;09:49;52,000;
20.03.2024;09:34;52,000;
20.03.2024;09:19;52,000;
20.03.2024;09:04;52,000;
20.03.2024;08:49;52,000;
20.03.2024;08:34;52,000;
20.03.2024;08:19;52,000;
20.03.2024;08:04;52,000;
20.03.2024;07:49;52,000;
20.03.2024;07:34;52,000;
20.03.2024;07:19;52,000;
20.03.2024;07:04;52,000;
20.03.2024;06:49;52,000;
20.03.2024;06:34;52,000;
20.03.2024;06:19;52,000;
20.03.2024;06:04;52,000;
20.03.2024;05:49;52,000;
20.03.2024;05:34;52,000;
20.03.2024;05:19;52,000;
20.03.2024;05:04;52,000;
20.03.2024;04:49;52,000;
20.03.2024;04:34;52,000;
20.03.2024;04:19;52,000;
20.03.2024;04:04;52,000;
20.03.2024;03:49;52,000;
20.03.2024;03:34;52,000;
20.03.2024;03:19;52,000;
20.03.2024;03:04;52,000;
20.03.2024;02:49;52,000;
20.03.2024;02:34;52,000;
20.03.2024;02:19;52,000;
20.03.2024;02:04;52,000;
20.03.2024;01:49;52,000;
20.03.2024;01:34;52,000;
20.03.2024;01:19;52,000;
20.03.2024;01:04;52,000;
20.03.2024;00:49;52,000;
20.03.2024;00:34;52,000;
20.03.2024;00:19;52,000;
20.03.2024;00:04;52,000;
19.03.2024;23:49;52,000;
19.03.2024;23:34;52,000;
19.03.2024;23:19;52,000;
19.03.2024;23:04;52,000;
19.03.2024;22:49;52,000;
19.03.2024;22:34;52,000;
19.03.2024;22:19;52,000;
19.03.2024;22:04;52,000;
19.03.2024;21:49;52,000;
19.03.2024;21:34;52,000;
19.03.2024;21:19;52,000;
19.03.2024;21:04;52,000;